Terminal Aerodrome Forecast
Issued by NWS

Home | Current Version | Previous Version | Text Only | Print | Product List | Glossary On
Versions: 1 2 3 4 5 6 7 8 9 10 11 12 13 14 15 16 17 18 19 20 21
000
FTUS43 KIND 291000 AAA
TAFHUF
TAF AMD
KHUF 291006Z 2910/3006 03003KT P6SM SKC
      TEMPO 2911/2912 4SM BR
     FM291400 04006KT P6SM SCT150
     FM300000 36004KT P6SM BKN150=

USA.gov is the U.S. government's official web portal to all federal, state and local government web resources and services.